TimeCDT,TemperatureF,Dew PointF,Humidity,Sea Level PressureIn,VisibilityMPH,Wind Direction,Wind SpeedMPH,Gust SpeedMPH,PrecipitationIn,Events,Conditions,WindDirDegrees,DateUTC
12:55 AM,52.3,39.6,62,30.24,10.0,NE,9.2,-,N/A,,Overcast,50,2012-10-05 05:55:00
1:55 AM,52.2,39.6,62,30.24,6.0,NNE,9.2,-,N/A,,Haze,30,2012-10-05 06:55:00
2:55 AM,52.3,39.6,62,30.24,6.0,NE,12.7,-,N/A,,Haze,40,2012-10-05 07:55:00
3:01 AM,51.8,39.2,62,30.24,6.0,NE,10.4,-,N/A,,Haze,50,2012-10-05 08:01:00
3:02 AM,51.8,39.2,62,30.24,6.0,NE,11.5,-,N/A,,Haze,40,2012-10-05 08:02:00
3:55 AM,52.0,39.0,61,30.22,10.0,NE,12.7,-,N/A,,Mostly Cloudy,40,2012-10-05 08:55:00
4:55 AM,51.4,36.3,56,30.22,10.0,NNE,17.3,-,N/A,,Overcast,30,2012-10-05 09:55:00
5:55 AM,50.2,33.3,52,30.23,10.0,NE,15.0,-,N/A,,Mostly Cloudy,40,2012-10-05 10:55:00
6:55 AM,49.5,32.4,52,30.24,10.0,NE,17.3,-,N/A,,Mostly Cloudy,40,2012-10-05 11:55:00
7:55 AM,48.9,32.4,53,30.25,10.0,NE,15.0,-,N/A,,Overcast,40,2012-10-05 12:55:00
8:55 AM,48.6,31.8,52,30.23,10.0,ENE,15.0,-,N/A,,Overcast,60,2012-10-05 13:55:00
9:55 AM,48.9,32.0,52,30.24,10.0,NE,17.3,-,N/A,,Overcast,50,2012-10-05 14:55:00
10:55 AM,50.2,32.2,50,30.26,10.0,NE,16.1,-,N/A,,Mostly Cloudy,40,2012-10-05 15:55:00
11:55 AM,53.2,31.6,44,30.28,10.0,NE,16.1,-,N/A,,Overcast,40,2012-10-05 16:55:00
12:55 PM,55.8,30.7,39,30.26,10.0,NNE,17.3,26.5,N/A,,Partly Cloudy,30,2012-10-05 17:55:00
1:39 PM,55.4,32.0,41,30.26,10.0,NNE,17.3,26.5,N/A,,Light Drizzle,20,2012-10-05 18:39:00
1:55 PM,55.8,29.7,37,30.25,10.0,NNE,20.7,26.5,0.00,Rain,Light Rain,30,2012-10-05 18:55:00
2:36 PM,57.2,28.4,33,30.24,10.0,NE,20.7,27.6,N/A,,Clear,40,2012-10-05 19:36:00
2:55 PM,56.1,24.1,29,30.24,10.0,NE,20.7,31.1,0.00,,Clear,40,2012-10-05 19:55:00
3:55 PM,56.3,22.1,27,30.22,10.0,NE,19.6,25.3,N/A,,Partly Cloudy,50,2012-10-05 20:55:00
4:55 PM,56.3,22.5,27,30.22,10.0,NE,19.6,-,N/A,,Clear,40,2012-10-05 21:55:00
5:55 PM,54.5,28.8,37,30.24,9.0,NE,18.4,-,N/A,,Clear,40,2012-10-05 22:55:00
6:55 PM,50.5,31.6,48,30.26,10.0,NNE,18.4,-,N/A,,Clear,30,2012-10-05 23:55:00
7:55 PM,47.5,31.3,53,30.28,10.0,NE,10.4,-,N/A,,Clear,40,2012-10-06 00:55:00
8:55 PM,44.6,31.8,61,30.31,10.0,NE,8.1,-,N/A,,Clear,40,2012-10-06 01:55:00
9:55 PM,43.3,31.8,64,30.33,10.0,NNE,10.4,-,N/A,,Clear,20,2012-10-06 02:55:00
10:55 PM,42.4,31.6,66,30.33,10.0,NNE,8.1,-,N/A,,Clear,30,2012-10-06 03:55:00
11:55 PM,39.9,31.1,71,30.33,10.0,NE,5.8,-,N/A,,Clear,40,2012-10-06 04:55:00